STARLINK-32237 (60443 NORAD) Tracking and Keplerian Element Data

This shows tracking and keplerian element data for the satellite.

Feedback or suggestion? Click here.




ElementValue
Catalog60443
NameSTARLINK-32237
Epoch Orbit1079
Epoch Day286.84211899
Epoch Year2024
RAAN78.9803
Inclination53.1614
Eccentricity0.0001264
Argument of Perigee56.6411
Mean Anonmoly303.471
Mean Motion15.30194516
Decay Rate2.324E-05
L11 60443U 24144U 24286.84211899 .00002324 00000+0 90582-4 0 9994
L22 60443 53.1614 78.9803 0001264 56.6411 303.4710 15.30194516 10790



Live tracking and technical data element details for STARLINK-32237 (NORAD 60443). STARLINK-32237 can be tracked NOW for your location showing map with azimuth and elevation plus other details from your city location.







IsCatalogInMostPopularTable: catalog: 60443, numindb: 8
Update: records affected: 1



GetName: 60443 STARLINK-32237

Hit Count: updated at: Wed, 04 Dec 2024 19:11:48 GMT